Location: Stara Lesna
(49.1528°N, 20.2911°E)
Time: 03:32:45
(UTC+02:00)

Cosmos 1633 - Pass Details

Date: 13 July 2020
Orbit: 462 x 482 km, 82.5° (Epoch: 11 August)

Event Time Altitude Azimuth Distance (km) Brightness Sun altitude
Exits shadow 00:51:10 18° 257° (WSW) 1,222 4.4 -19.0°
Maximum altitude 00:52:32 23° 289° (WNW) 1,069 4.4 -19.0°
Drops below altitude 10° 00:55:28 10° 343° (NNW) 1,656 6.3 -19.0°
Sets 00:57:53 0° 359° (N) 2,535 7.9 -19.0°
